OH2EGI-2 Weather Reports


Display with metric or nautical units.
time (UTC)temp
F
wind
direction
speed
MPH
gust
MPH
rain 1hr
in
rain 24hr
in
rain mn
in
humidity
%
barometer
mb
20260506094632 57 292 0.0 0.0 0.00 0.00 0.00 29 1005.3
20260506094132 60 270 0.0 0.0 0.00 0.00 0.00 29 1005.2
20260506093632 60 270 0.0 0.0 0.00 0.00 0.00 29 1005.0
20260506093132 60 270 0.0 4.0 0.00 0.00 0.00 30 1004.9
20260506092632 57 247 0.0 0.0 0.00 0.00 0.00 32 1004.9
20260506092132 55 315 0.0 0.0 0.00 0.00 0.00 32 1004.9
20260506091632 56 270 0.0 0.0 0.00 0.00 0.00 32 1004.9
20260506091132 55 270 0.0 4.0 0.00 0.00 0.00 32 1004.8
20260506090632 54 225 0.0 0.0 0.00 0.00 0.00 33 1004.8
20260506090132 55 292 0.0 0.0 0.00 0.00 0.00 32 1004.9
20260506085632 55 270 0.0 0.0 0.00 0.00 0.00 32 1004.8
20260506085132 55 292 0.0 0.0 0.00 0.00 0.00 33 1004.8
20260506084632 55 270 0.0 0.0 0.00 0.00 0.00 33 1004.9
20260506084132 55 315 0.0 0.0 0.00 0.00 0.00 33 1004.8
20260506083632 57 292 0.0 2.0 0.00 0.00 0.00 32 1004.9
20260506083132 58 292 0.0 0.0 0.00 0.00 0.00 33 1004.8
20260506082632 57 292 0.0 4.0 0.00 0.00 0.00 33 1004.8
20260506082132 55 247 0.0 4.0 0.00 0.00 0.00 33 1004.8
20260506081632 55 270 0.0 0.0 0.00 0.00 0.00 34 1004.8
20260506081132 56 270 0.0 0.0 0.00 0.00 0.00 33 1004.8
20260506080632 58 247 0.0 0.0 0.00 0.00 0.00 33 1004.7
20260506080132 58 202 0.0 3.0 0.00 0.00 0.00 33 1004.8
20260506073132 58 337 0.0 0.0 0.00 0.00 0.00 34 1004.6
20260506072632 58 292 0.0 1.0 0.00 0.00 0.00 36 1004.4
20260506072132 58 315 1.0 1.0 0.00 0.00 0.00 35 1004.4
20260506071632 58 292 0.0 5.0 0.00 0.00 0.00 35 1004.4
20260506071132 59 292 0.0 3.0 0.00 0.00 0.00 36 1004.5
20260506070632 59 247 3.0 3.0 0.00 0.00 0.00 35 1004.3
20260506070132 60 292 0.0 3.0 0.00 0.00 0.00 35 1004.4
20260506062132 59 292 0.0 0.0 0.00 0.00 0.00 40 1004.2
20260506061632 59 337 0.0 4.0 0.00 0.00 0.00 42 1004.2
20260506061132 59 315 0.0 3.0 0.00 0.00 0.00 43 1004.2
20260506060632 59 270 0.0 0.0 0.00 0.00 0.00 44 1004.1
20260506060132 59 292 0.0 0.0 0.00 0.00 0.00 46 1004.0
20260506051133 42 315 0.0 0.0 0.00 0.00 0.00 71 1003.3
20260506050632 41 315 0.0 0.0 0.00 0.00 0.00 72 1003.1
20260506050132 40 337 0.0 0.0 0.00 0.00 0.00 72 1003.5
20260506045133 39 337 0.0 0.0 0.00 0.00 0.00 73 1003.2
20260506044633 39 292 0.0 0.0 0.00 0.00 0.00 74 1003.2
20260506044133 38 292 0.0 0.0 0.00 0.00 0.00 74 1003.1
20260506043633 38 292 0.0 0.0 0.00 0.00 0.00 75 1003.1
20260506043133 37 292 0.0 0.0 0.00 0.00 0.00 75 1003.1
20260506042633 37 292 0.0 0.0 0.00 0.00 0.00 75 1003.0
20260506042133 37 247 0.0 0.0 0.00 0.00 0.00 76 1003.0
20260506041633 36 270 0.0 0.0 0.00 0.00 0.00 76 1002.8
20260506041133 36 315 0.0 0.0 0.00 0.00 0.00 76 1002.8
20260506040633 35 315 0.0 0.0 0.00 0.00 0.00 77 1002.9
20260506040133 35 315 0.0 0.0 0.00 0.00 0.00 77 1002.8
20260506035633 34 315 0.0 0.0 0.00 0.00 0.00 77 1002.7
20260506035133 34 292 0.0 0.0 0.00 0.00 0.00 77 1002.7
20260506034633 34 292 0.0 0.0 0.00 0.00 0.00 77 1002.7
20260506034133 33 292 0.0 0.0 0.00 0.00 0.00 77 1002.7
20260506033633 33 292 0.0 0.0 0.00 0.00 0.00 77 1002.6
20260506033133 33 292 0.0 0.0 0.00 0.00 0.00 77 1002.5
20260506032633 32 292 0.0 0.0 0.00 0.00 0.00 77 1002.6
20260506032133 32 292 0.0 0.0 0.00 0.00 0.00 77 1002.5
20260506031633 32 292 0.0 0.0 0.00 0.00 0.00 77 1002.5
20260506031133 31 292 0.0 0.0 0.00 0.00 0.00 77 1002.4
20260506030633 31 292 0.0 0.0 0.00 0.00 0.00 77 1002.4
20260506030133 31 292 0.0 0.0 0.00 0.00 0.00 77 1002.3
20260506025633 31 292 0.0 0.0 0.00 0.00 0.00 77 1002.3
20260506025133 31 292 0.0 0.0 0.00 0.00 0.00 77 1002.3
20260506024633 31 292 0.0 0.0 0.00 0.00 0.00 77 1002.2
20260506024133 31 292 0.0 0.0 0.00 0.00 0.00 77 1002.0
20260506023633 30 292 0.0 0.0 0.00 0.00 0.00 77 1002.0
20260506023133 31 292 0.0 0.0 0.00 0.00 0.00 77 1002.0
20260506022633 30 292 0.0 0.0 0.00 0.00 0.00 76 1002.0
20260506022133 30 292 0.0 0.0 0.00 0.00 0.00 76 1001.9
20260506021633 30 292 0.0 0.0 0.00 0.00 0.00 76 1001.8
20260506021133 30 292 0.0 0.0 0.00 0.00 0.00 76 1001.8
20260506020633 30 292 0.0 0.0 0.00 0.00 0.00 75 1001.7
20260506020133 31 292 0.0 0.0 0.00 0.00 0.00 75 1001.7
20260506015633 31 292 0.0 0.0 0.00 0.00 0.00 75 1001.8
20260506015133 31 292 0.0 0.0 0.00 0.00 0.00 75 1001.6
20260506014633 31 292 0.0 0.0 0.00 0.00 0.00 75 1001.6
20260506014133 32 292 0.0 0.0 0.00 0.00 0.00 75 1001.6
20260506013633 32 292 0.0 0.0 0.00 0.00 0.00 75 1001.6
20260506013133 32 292 0.0 0.0 0.00 0.00 0.00 74 1001.6
20260506012633 32 292 0.0 0.0 0.00 0.00 0.00 74 1001.6
20260506012133 32 292 0.0 0.0 0.00 0.00 0.00 74 1001.6
20260506011633 32 292 0.0 0.0 0.00 0.00 0.00 74 1001.6
20260506011133 32 292 0.0 0.0 0.00 0.00 0.00 74 1001.5
20260506010633 32 292 0.0 0.0 0.00 0.00 0.00 74 1001.4
20260506010133 33 292 0.0 0.0 0.00 0.00 0.00 74 1001.4
20260506005633 33 292 0.0 0.0 0.00 0.00 0.00 74 1001.3
20260506005133 33 292 0.0 0.0 0.00 0.00 0.00 73 1001.2
20260506004633 33 292 0.0 0.0 0.00 0.00 0.00 73 1001.2
20260506004133 33 292 0.0 0.0 0.00 0.00 0.00 72 1001.1
20260506003633 33 292 0.0 0.0 0.00 0.00 0.00 72 1001.2
20260506003133 33 292 0.0 0.0 0.00 0.00 0.00 72 1001.1
20260506002633 33 292 0.0 0.0 0.00 0.00 0.00 72 1001.1
20260506002133 33 292 0.0 0.0 0.00 0.00 0.00 72 1001.1
20260506001633 33 292 0.0 0.0 0.00 0.00 0.00 72 1001.0
20260506001133 34 292 0.0 0.0 0.00 0.00 0.00 71 1001.1
20260506000633 34 270 0.0 0.0 0.00 0.00 0.00 71 1001.0
20260506000133 34 270 0.0 0.0 0.00 0.00 0.00 71 1001.0
20260505235633 34 270 0.0 0.0 0.00 0.00 0.00 70 1001.1
20260505235133 34 270 0.0 0.0 0.00 0.00 0.00 70 1000.8
20260505234633 34 270 0.0 0.0 0.00 0.00 0.00 70 1000.8
20260505234133 34 270 0.0 0.0 0.00 0.00 0.00 70 1000.8
20260505233633 34 270 0.0 0.0 0.00 0.00 0.00 69 1000.7
20260505233133 34 270 0.0 0.0 0.00 0.00 0.00 69 1000.7
20260505232633 34 247 0.0 0.0 0.00 0.00 0.00 69 1000.6
20260505232134 34 292 0.0 0.0 0.00 0.00 0.00 69 1000.6
20260505231633 35 292 0.0 0.0 0.00 0.00 0.00 69 1000.7
20260505231133 35 315 0.0 0.0 0.00 0.00 0.00 68 1000.6
20260505230634 35 315 0.0 0.0 0.00 0.00 0.00 68 1000.6
20260505230134 35 315 0.0 0.0 0.00 0.00 0.00 68 1000.5
20260505225634 35 315 0.0 0.0 0.00 0.00 0.00 67 1000.4
20260505225134 35 315 0.0 0.0 0.00 0.00 0.00 67 1000.5
20260505224634 35 315 0.0 0.0 0.00 0.00 0.00 67 1000.4
20260505224134 36 315 0.0 0.0 0.00 0.00 0.00 67 1000.4
20260505223634 36 315 0.0 0.0 0.00 0.00 0.00 66 1000.3
20260505223134 36 315 0.0 0.0 0.00 0.00 0.00 66 1000.4
20260505222634 36 315 0.0 0.0 0.00 0.00 0.00 66 1000.3
20260505222134 36 315 0.0 0.0 0.00 0.00 0.00 65 1000.3
20260505221634 37 315 0.0 0.0 0.00 0.00 0.00 65 1000.3
20260505221134 37 315 0.0 0.0 0.00 0.00 0.00 65 1000.1
20260505220634 37 315 0.0 0.0 0.00 0.00 0.00 65 1000.2
20260505220134 37 315 0.0 0.0 0.00 0.00 0.00 64 1000.3
20260505215634 37 315 0.0 0.0 0.00 0.00 0.00 63 1000.2
20260505215134 37 315 0.0 0.0 0.00 0.00 0.00 63 1000.2
20260505214634 37 292 0.0 0.0 0.00 0.00 0.00 62 1000.1
20260505214134 37 292 0.0 0.0 0.00 0.00 0.00 62 1000.1
20260505213634 37 292 0.0 0.0 0.00 0.00 0.00 61 1000.1
20260505213134 38 292 0.0 0.0 0.00 0.00 0.00 61 999.9
20260505212634 38 292 0.0 0.0 0.00 0.00 0.00 61 999.9
20260505212134 38 292 0.0 0.0 0.00 0.00 0.00 60 999.9
20260505211634 38 315 0.0 0.0 0.00 0.00 0.00 60 999.8
20260505211134 38 315 0.0 0.0 0.00 0.00 0.00 59 999.8
20260505210634 38 315 0.0 0.0 0.00 0.00 0.00 59 999.8
20260505210134 39 292 0.0 0.0 0.00 0.00 0.00 59 999.7
20260505205634 39 315 0.0 0.0 0.00 0.00 0.00 58 999.6
20260505205134 39 292 0.0 0.0 0.00 0.00 0.00 58 999.6
20260505204634 39 315 0.0 0.0 0.00 0.00 0.00 57 999.5
20260505204134 39 315 0.0 0.0 0.00 0.00 0.00 57 999.3
20260505203634 39 292 0.0 0.0 0.00 0.00 0.00 56 999.4
20260505203134 39 292 0.0 0.0 0.00 0.00 0.00 56 999.1
20260505202634 40 292 0.0 0.0 0.00 0.00 0.00 56 999.3
20260505202134 40 292 0.0 0.0 0.00 0.00 0.00 55 999.1
20260505201634 40 270 0.0 0.0 0.00 0.00 0.00 55 999.1
20260505201134 40 292 0.0 0.0 0.00 0.00 0.00 55 999.0
20260505200634 40 292 0.0 0.0 0.00 0.00 0.00 54 998.9
20260505200134 41 292 0.0 0.0 0.00 0.00 0.00 54 998.8
20260505195634 41 292 0.0 0.0 0.00 0.00 0.00 53 998.8
20260505195134 41 292 0.0 0.0 0.00 0.00 0.00 53 998.8
20260505194634 41 315 0.0 0.0 0.00 0.00 0.00 52 998.7
20260505194134 41 292 0.0 0.0 0.00 0.00 0.00 52 998.7
20260505193634 41 292 0.0 0.0 0.00 0.00 0.00 51 998.7
20260505193134 41 337 0.0 0.0 0.00 0.00 0.00 51 998.7
20260505192634 42 315 0.0 0.0 0.00 0.00 0.00 50 998.7
20260505192134 42 315 0.0 0.0 0.00 0.00 0.00 49 998.7
20260505191634 42 315 0.0 0.0 0.00 0.00 0.00 49 998.6
20260505191134 42 292 0.0 0.0 0.00 0.00 0.00 49 998.6
20260505190634 42 292 0.0 0.0 0.00 0.00 0.00 48 998.5
20260505190134 42 292 0.0 0.0 0.00 0.00 0.00 47 998.5
20260505185634 43 270 0.0 0.0 0.00 0.00 0.00 47 998.5
20260505185134 43 292 0.0 0.0 0.00 0.00 0.00 46 998.4
20260505184634 43 270 0.0 0.0 0.00 0.00 0.00 46 998.4
20260505184134 44 292 0.0 0.0 0.00 0.00 0.00 46 998.3
20260505183634 44 315 0.0 5.0 0.00 0.00 0.00 46 998.3
20260505183134 44 270 0.0 0.0 0.00 0.00 0.00 45 998.2
20260505182634 44 292 0.0 2.0 0.00 0.00 0.00 45 998.0
20260505182134 45 315 0.0 4.0 0.00 0.00 0.00 45 998.0
20260505181634 45 315 0.0 0.0 0.00 0.00 0.00 44 998.0
20260505181134 45 315 0.0 0.0 0.00 0.00 0.00 44 997.9
20260505180634 45 270 0.0 0.0 0.00 0.00 0.00 44 997.9
20260505180134 46 292 0.0 0.0 0.00 0.00 0.00 43 997.8
20260505175634 46 292 0.0 0.0 0.00 0.00 0.00 42 997.7
20260505175134 46 292 0.0 0.0 0.00 0.00 0.00 42 997.7
20260505174634 47 315 0.0 4.0 0.00 0.00 0.00 41 997.6
20260505174134 47 292 0.0 6.0 0.00 0.00 0.00 41 997.6
20260505173634 48 337 0.0 5.0 0.00 0.00 0.00 41 997.6
20260505173134 48 292 0.0 8.0 0.00 0.00 0.00 41 997.5
20260505172634 48 315 0.0 7.0 0.00 0.00 0.00 40 997.5
20260505172134 49 292 0.0 0.0 0.00 0.00 0.00 40 997.5
20260505171635 49 225 0.0 0.0 0.00 0.00 0.00 39 997.4
20260505171135 50 337 0.0 2.0 0.00 0.00 0.00 38 997.5
20260505170635 50 315 0.0 3.0 0.00 0.00 0.00 37 997.5
20260505170135 51 315 0.0 3.0 0.00 0.00 0.00 36 997.5
20260505165635 53 270 0.0 4.0 0.00 0.00 0.00 35 997.3
20260505165135 54 270 0.0 5.0 0.00 0.00 0.00 34 997.4
20260505164635 54 270 0.0 4.0 0.00 0.00 0.00 33 997.2
20260505164135 55 292 0.0 5.0 0.00 0.00 0.00 32 997.2
20260505163635 54 270 0.0 4.0 0.00 0.00 0.00 32 997.3
20260505163135 54 247 0.0 5.0 0.00 0.00 0.00 32 997.2
20260505162635 55 270 0.0 4.0 0.00 0.00 0.00 31 997.1
20260505162135 56 292 0.0 3.0 0.00 0.00 0.00 30 997.3
20260505161635 58 270 0.0 2.0 0.00 0.00 0.00 29 997.3
20260505161135 61 315 0.0 5.0 0.00 0.00 0.00 27 997.2
20260505160635 64 225 0.0 2.0 0.00 0.00 0.00 25 997.1
20260505160135 66 315 0.0 5.0 0.00 0.00 0.00 24 997.1
20260505153135 68 315 0.0 3.0 0.00 0.00 0.00 25 996.8
20260505152635 66 315 0.0 3.0 0.00 0.00 0.00 26 996.8
20260505152135 69 270 0.0 3.0 0.00 0.00 0.00 24 996.8
20260505151635 70 292 0.0 6.0 0.00 0.00 0.00 23 996.8
20260505151135 71 315 0.0 8.0 0.00 0.00 0.00 23 996.8
20260505150635 72 270 0.0 6.0 0.00 0.00 0.00 24 996.8
20260505150135 72 292 0.0 3.0 0.00 0.00 0.00 25 996.7
20260505140635 62 292 0.0 0.0 0.00 0.00 0.00 33 996.6
20260505140135 60 247 0.0 0.0 0.00 0.00 0.00 34 996.5
20260505130135 63 337 5.0 6.0 0.00 0.00 0.00 31 996.4
20260505124635 67 247 0.0 4.0 0.00 0.00 0.00 30 996.3
20260505124135 67 315 0.0 5.0 0.00 0.00 0.00 31 996.3
20260505123635 69 315 0.0 1.0 0.00 0.00 0.00 30 996.1
20260505123135 68 337 0.0 5.0 0.00 0.00 0.00 31 996.1
20260505122635 67 315 4.0 4.0 0.00 0.00 0.00 32 996.2
20260505122135 65 315 0.0 5.0 0.00 0.00 0.00 33 996.1
20260505121635 64 292 0.0 0.0 0.00 0.00 0.00 33 996.0
20260505121135 64 247 0.0 0.0 0.00 0.00 0.00 34 995.9
20260505120635 66 292 0.0 4.0 0.00 0.00 0.00 32 995.8
20260505120135 65 292 0.0 3.0 0.00 0.00 0.00 33 995.8
20260505115635 67 292 0.0 3.0 0.00 0.00 0.00 33 995.8
20260505115135 66 270 3.0 9.0 0.00 0.00 0.00 33 995.6
20260505114635 65 270 4.0 5.0 0.00 0.00 0.00 33 995.6
20260505114135 65 315 4.0 4.0 0.00 0.00 0.00 33 995.6
20260505113635 65 315 0.0 6.0 0.00 0.00 0.00 32 995.5
20260505113135 66 315 0.0 2.0 0.00 0.00 0.00 33 995.3
20260505112636 64 292 0.0 1.0 0.00 0.00 0.00 33 995.3
20260505112136 63 270 0.0 10.0 0.00 0.00 0.00 34 995.2
20260505111635 61 337 10.0 10.0 0.00 0.00 0.00 34 995.2
20260505111136 64 337 0.0 2.0 0.00 0.00 0.00 34 995.2
20260505110636 64 337 0.0 6.0 0.00 0.00 0.00 32 995.2
20260505110136 68 292 1.0 7.0 0.00 0.00 0.00 32 994.9
20260505102136 64 292 0.0 3.0 0.00 0.00 0.00 39 994.4
20260505101636 62 292 0.0 8.0 0.00 0.00 0.00 38 994.4
20260505101136 64 270 0.0 7.0 0.00 0.00 0.00 36 994.2
20260505100636 63 315 7.0 11.0 0.00 0.00 0.00 38 994.2
20260505100136 63 292 2.0 5.0 0.00 0.00 0.00 42 994.1
20260505095636 61 292 0.0 4.0 0.00 0.00 0.00 45 994.1
20260505095136 60 270 0.0 6.0 0.00 0.00 0.00 47 993.9